Location: York
(31.8935°S, 116.7682°E)
Time: 10:07:24
(UTC+08:00)

Tiangong - Visible Passes

Search period start: 06 December 2023 00:00
Search period end: 16 December 2023 00:00
Orbit: 373 x 383 km, 41.5° (Epoch: 05 December)

Date Brightness Start Highest point End Pass type
(mag) Time Alt. Az. Time Alt. Az. Time Alt. Az.
06 Dec 0.8 02:29:15 14° SSW 02:30:09 15° S 02:32:03 10° SE visible
06 Dec -0.4 04:04:31 10° SW 04:07:26 33° SSE 04:10:19 10° E visible
07 Dec 0.4 03:02:55 10° SW 03:05:29 22° SSE 03:08:02 10° ESE visible
08 Dec 1.1 02:04:25 15° SSE 02:04:25 15° SSE 02:05:37 10° SE visible
08 Dec -1.5 03:37:28 10° SW 03:40:34 55° SSE 03:43:39 10° ENE visible
09 Dec -0.3 02:38:50 31° SSE 02:38:50 31° SSE 02:41:28 10° E visible
09 Dec -1.5 04:12:25 10° WSW 04:15:20 35° NW 04:18:12 10° NNE visible
09 Dec -1.6 20:41:56 10° NW 20:44:20 41° N 20:44:20 41° N visible
10 Dec -1.9 03:14:06 55° NE 03:14:06 55° NE 03:16:39 10° NE visible
10 Dec -0.9 19:40:39 10° NNW 19:43:13 23° NE 19:45:48 10° E visible
10 Dec -1.0 21:16:44 10° W 21:19:47 42° SSW 21:19:55 42° SSW visible
11 Dec 0.3 03:50:09 11° N 03:50:09 11° N 03:50:21 10° N visible
11 Dec -2.1 20:14:39 10° WNW 20:17:48 84° SSW 20:20:58 10° ESE visible
11 Dec 0.6 21:52:23 10° WSW 21:54:34 20° SSW 21:54:34 20° SSW visible
12 Dec 0.0 20:49:51 10° W 20:52:39 28° SSW 20:55:27 10° SE visible
12 Dec 1.5 22:28:07 10° SW 22:28:27 11° SSW 22:28:27 11° SSW visible
13 Dec -1.0 19:47:28 10° W 19:50:33 47° SSW 19:53:37 10° SE visible
13 Dec 0.8 21:25:35 10° SW 21:27:43 16° S 21:29:44 10° SSE visible
14 Dec 0.5 20:22:57 10° WSW 20:25:26 21° SSW 20:27:57 10° SE visible
14 Dec 0.9 22:01:00 10° SSW 22:02:48 14° S 22:02:48 14° S visible
15 Dec 0.8 20:58:37 10° SW 21:00:31 15° S 21:02:25 10° SSE visible
15 Dec 1.5 22:35:34 10° SW 22:35:40 10° SW 22:35:40 10° SW visible
